User: anonymous   Login
Location: Unspecified
(0.0000°N, 0.0000°E)
Time: 09:26:23
(UTC+00:00)
Language:

Sirio 1 - Orbit

View from above orbital plane
View from above orbital plane
View from above satellite
View from above satellite

Ground track
Ground track

The orbit data is extracted from the following two-line orbital elements,

1 10294U 77080A   17295.71838587 -.00000121 +00000-0 +00000-0 0  9994
2 10294 013.4763 330.7959 0003551 054.6925 340.3802 01.00272937086244
Epoch (UTC): 22 October 2017 17:14:28
Eccentricity: 0.0003551
inclination: 13.4763°
perigee height: 35771 km
apogee height: 35801 km
right ascension of ascending node: 330.7959°
argument of perigee: 54.6925°
revolutions per day: 1.00272937
mean anomaly at epoch: 340.3802°
orbit number at epoch: 8624

The dashed part of the orbit path shows where the satellite is in the earth's shadow,  

DLR